When you browse on this site, cookies collect data to enhance your experience and personalize the content and advertising you see.
Visit our Privacy Policy to learn more. By continuing to use the site, you agree to this use of cookies and data.
  • In Lithuania
  • List of Countries
  • For 7 days
  • Water Temperature
  • Weather Map
  • Weather Widgets
  • user-avatar
    Login

    Hourly Weather Konstantyna

    Today, 28 January, Tuesday

    Time Temperature Precipitation Wind Pressure Humidity
    00:00 +7°C° 0 mm 2 mps 714 mmHg 80%
    01:00 +6°C° 0 mm 2 mps 714 mmHg 79%
    02:00 +6°C° 0 mm 2 mps 714 mmHg 79%
    03:00 +6°C° 0 mm 2 mps 713 mmHg 78%
    04:00 +5°C° 0 mm 2 mps 713 mmHg 78%
    05:00 +5°C° 0 mm 2 mps 713 mmHg 77%
    06:00 +5°C° 0 mm 2 mps 714 mmHg 77%
    07:00 +6°C° 0 mm 2 mps 714 mmHg 71%
    08:00 +8°C° 0 mm 3 mps 714 mmHg 66%
    09:00 +10°C° 0 mm 3 mps 715 mmHg 60%
    10:00 +11°C° 0 mm 3 mps 715 mmHg 54%
    11:00 +13°C° 0 mm 3 mps 715 mmHg 47%
    12:00 +14°C° 0 mm 3 mps 715 mmHg 41%
    13:00 +14°C° 0 mm 3 mps 714 mmHg 42%
    14:00 +16°C° 0 mm 3 mps 714 mmHg 43%
    15:00 +16°C° 0 mm 3 mps 713 mmHg 44%
    16:00 +14°C° 0 mm 2 mps 713 mmHg 52%
    17:00 +12°C° 0 mm 1 mps 713 mmHg 60%
    18:00 +10°C° 0 mm 1 mps 713 mmHg 68%
    19:00 +9°C° 0 mm 1 mps 713 mmHg 69%
    20:00 +9°C° 0 mm 1 mps 714 mmHg 70%
    21:00 +9°C° 0 mm 1 mps 714 mmHg 71%
    22:00 +9°C° 0 mm 1 mps 714 mmHg 70%
    23:00 +9°C° 0 mm 1 mps 714 mmHg 69%

    Tomorrow, 29 January, Wednesday

    Time Temperature Precipitation Wind Pressure Humidity
    00:00 +9°C° 0 mm 1 mps 714 mmHg 68%
    01:00 +9°C° 0 mm 1 mps 714 mmHg 68%
    02:00 +9°C° 0 mm 1 mps 713 mmHg 68%
    03:00 +8°C° 0 mm 2 mps 713 mmHg 68%
    04:00 +8°C° 0 mm 2 mps 713 mmHg 69%
    05:00 +8°C° 0 mm 2 mps 713 mmHg 70%
    06:00 +8°C° 0 mm 2 mps 713 mmHg 71%
    07:00 +10°C° 0 mm 1 mps 714 mmHg 67%
    08:00 +12°C° 0 mm 1 mps 714 mmHg 63%
    09:00 +14°C° 0 mm 1 mps 715 mmHg 60%
    10:00 +15°C° 0 mm 2 mps 715 mmHg 57%
    11:00 +16°C° 0 mm 2 mps 715 mmHg 54%
    12:00 +17°C° 0 mm 2 mps 715 mmHg 51%
    13:00 +17°C° 0 mm 3 mps 714 mmHg 52%
    14:00 +17°C° 0 mm 3 mps 714 mmHg 53%
    15:00 +17°C° 0 mm 3 mps 714 mmHg 54%
    16:00 +14°C° 0 mm 3 mps 714 mmHg 62%
    17:00 +13°C° 0 mm 2 mps 714 mmHg 70%
    18:00 +11°C° 0 mm 1 mps 714 mmHg 78%
    19:00 +11°C° 0 mm 1 mps 714 mmHg 79%
    20:00 +10°C° 0 mm 0 mps 714 mmHg 79%
    21:00 +9°C° 0 mm 0 mps 714 mmHg 80%
    22:00 +9°C° 0 mm 0 mps 714 mmHg 80%
    23:00 +10°C° 0 mm 1 mps 714 mmHg 81%

    Day after tomorrow, 30 January, Thursday

    Time Temperature Precipitation Wind Pressure Humidity
    00:00 +10°C° 0 mm 1 mps 714 mmHg 81%
    01:00 +10°C° 0 mm 1 mps 714 mmHg 81%
    02:00 +9°C° 0 mm 1 mps 713 mmHg 81%
    03:00 +9°C° 0 mm 1 mps 713 mmHg 82%
    04:00 +9°C° 0 mm 1 mps 713 mmHg 81%
    05:00 +9°C° 0 mm 1 mps 713 mmHg 81%
    06:00 +9°C° 0 mm 1 mps 713 mmHg 80%
    07:00 +11°C° 0 mm 1 mps 714 mmHg 73%
    08:00 +13°C° 0 mm 1 mps 714 mmHg 67%
    09:00 +15°C° 0 mm 1 mps 715 mmHg 60%
    10:00 +16°C° 0 mm 2 mps 715 mmHg 56%
    11:00 +17°C° 0 mm 2 mps 715 mmHg 52%
    12:00 +18°C° 0 mm 2 mps 715 mmHg 47%
    13:00 +18°C° 0 mm 2 mps 715 mmHg 49%
    14:00 +18°C° 0 mm 2 mps 714 mmHg 51%
    15:00 +18°C° 0 mm 2 mps 714 mmHg 53%
    16:00 +16°C° 0 mm 2 mps 714 mmHg 61%
    17:00 +14°C° 0 mm 1 mps 714 mmHg 68%
    18:00 +12°C° 0 mm 1 mps 714 mmHg 76%
    19:00 +11°C° 0 mm 0 mps 714 mmHg 77%
    20:00 +11°C° 0 mm 0 mps 714 mmHg 79%
    21:00 +10°C° 0 mm 0 mps 714 mmHg 80%
    22:00 +10°C° 0 mm 0 mps 714 mmHg 80%
    23:00 +10°C° 0 mm 0 mps 713 mmHg 81%

    31 January, Friday

    Time Temperature Precipitation Wind Pressure Humidity
    00:00 +10°C° 0 mm 1 mps 713 mmHg 81%
    01:00 +10°C° 0 mm 1 mps 713 mmHg 80%
    02:00 +10°C° 0 mm 1 mps 713 mmHg 80%
    03:00 +10°C° 0 mm 1 mps 713 mmHg 79%
    04:00 +9°C° 0 mm 1 mps 713 mmHg 79%
    05:00 +9°C° 0 mm 1 mps 713 mmHg 79%
    06:00 +9°C° 0 mm 1 mps 713 mmHg 80%
    07:00 +11°C° 0 mm 1 mps 713 mmHg 73%
    08:00 +12°C° 0 mm 1 mps 714 mmHg 67%
    09:00 +14°C° 0 mm 1 mps 714 mmHg 61%
    10:00 +15°C° 0 mm 1 mps 714 mmHg 55%
    11:00 +16°C° 0 mm 2 mps 714 mmHg 49%
    12:00 +17°C° 0 mm 2 mps 714 mmHg 43%
    13:00 +17°C° 0 mm 2 mps 714 mmHg 45%
    14:00 +17°C° 0 mm 2 mps 714 mmHg 46%
    15:00 +17°C° 0 mm 2 mps 713 mmHg 47%
    16:00 +15°C° 0 mm 2 mps 713 mmHg 56%
    17:00 +13°C° 0 mm 1 mps 713 mmHg 65%
    18:00 +11°C° 0 mm 1 mps 713 mmHg 74%
    19:00 +11°C° 0 mm 1 mps 713 mmHg 75%
    20:00 +10°C° 0 mm 1 mps 713 mmHg 77%
    21:00 +9°C° 0 mm 0 mps 713 mmHg 78%
    22:00 +10°C° 0 mm 1 mps 713 mmHg 78%
    23:00 +9°C° 0 mm 1 mps 713 mmHg 79%

    1 February, Saturday

    Time Temperature Precipitation Wind Pressure Humidity
    00:00 +9°C° 0 mm 1 mps 713 mmHg 79%
    01:00 +9°C° 0 mm 1 mps 713 mmHg 79%
    02:00 +9°C° 0 mm 1 mps 713 mmHg 79%
    03:00 +9°C° 0 mm 1 mps 712 mmHg 79%
    04:00 +8°C° 0 mm 0 mps 712 mmHg 79%
    05:00 +7°C° 0 mm 0 mps 712 mmHg 78%
    06:00 +7°C° 0 mm 0 mps 712 mmHg 78%
    07:00 +9°C° 0 mm 0 mps 713 mmHg 71%
    08:00 +11°C° 0 mm 0 mps 714 mmHg 64%
    09:00 +13°C° 0 mm 0 mps 715 mmHg 58%
    10:00 +15°C° 0 mm 1 mps 715 mmHg 54%
    11:00 +16°C° 0 mm 1 mps 715 mmHg 51%
    12:00 +17°C° 0 mm 2 mps 715 mmHg 48%
    13:00 +17°C° 0 mm 2 mps 714 mmHg 51%
    14:00 +17°C° 0 mm 2 mps 714 mmHg 53%
    15:00 +16°C° 0 mm 2 mps 714 mmHg 55%
    16:00 +15°C° 0 mm 2 mps 714 mmHg 63%
    17:00 +13°C° 0 mm 1 mps 714 mmHg 71%
    18:00 +12°C° 0 mm 1 mps 714 mmHg 79%
    19:00 +11°C° 0 mm 1 mps 714 mmHg 80%
    20:00 +11°C° 0 mm 1 mps 714 mmHg 81%
    21:00 +9°C° 0 mm 0 mps 714 mmHg 83%
    22:00 +10°C° 0 mm 1 mps 714 mmHg 83%
    23:00 +10°C° 0 mm 1 mps 714 mmHg 83%

    2 February, Sunday

    Time Temperature Precipitation Wind Pressure Humidity
    00:00 +10°C° 0 mm 1 mps 714 mmHg 84%
    01:00 +10°C° 0 mm 1 mps 714 mmHg 82%
    02:00 +10°C° 0 mm 1 mps 715 mmHg 81%
    03:00 +10°C° 0 mm 1 mps 715 mmHg 80%
    04:00 +10°C° 0 mm 1 mps 715 mmHg 81%
    05:00 +9°C° 0 mm 1 mps 715 mmHg 83%
    06:00 +9°C° 0 mm 1 mps 715 mmHg 85%
    07:00 +10°C° 0 mm 1 mps 715 mmHg 79%
    08:00 +12°C° 0 mm 1 mps 716 mmHg 74%
    09:00 +13°C° 0 mm 2 mps 717 mmHg 69%
    10:00 +14°C° 0 mm 2 mps 717 mmHg 65%
    11:00 +16°C° 0 mm 3 mps 717 mmHg 62%
    12:00 +17°C° 0 mm 4 mps 717 mmHg 59%
    13:00 +15°C° 0 mm 4 mps 717 mmHg 61%
    14:00 +15°C° 0 mm 4 mps 717 mmHg 64%
    15:00 +15°C° 0 mm 4 mps 717 mmHg 66%
    16:00 +13°C° 0 mm 3 mps 717 mmHg 74%
    17:00 +13°C° 0 mm 2 mps 717 mmHg 82%
    18:00 +11°C° 0 mm 1 mps 717 mmHg 90%
    19:00 +10°C° 0 mm 1 mps 717 mmHg 90%
    20:00 +10°C° 0 mm 1 mps 718 mmHg 91%
    21:00 +9°C° 0 mm 0 mps 718 mmHg 92%
    22:00 +8°C° 0 mm 0 mps 718 mmHg 91%
    23:00 +9°C° 0 mm 1 mps 718 mmHg 91%
    Show more